Regional Weather Roundup
Issued by NWS

Home | Current Version | Previous Version | Graphics & Text | Print | Product List | Glossary Off
Versions: 1 2 3 4 5 6 7 8 9 10 11 12 13 14 15 16 17 18 19 20 21 22 23 24 25 26 27 28 29 30 31 32 33 34 35 36 37 38 39 40 41 42 43 44 45 46 47 48 49 50

765
ASUS43 KMPX 242310
RWRMN
WEATHER ROUNDUP FOR MINNESOTA
NATIONAL WEATHER SERVICE TWIN CITIES/CHANHASSEN MN
600 PM CDT MON APR 24 2017


NOTE: "FAIR" INDICATES FEW OR NO CLOUDS BELOW 12,000 FEET WITH NO
SIGNIFICANT WEATHER AND/OR OBSTRUCTIONS TO VISIBILITY. N/A MEANS
CURRENT SKY AND/OR WEATHER CONDITIONS ARE NOT AVAILABLE.

MNZ060>063-068>070-250000-
   Twin Cities Metro

CITY           SKY/WX    TMP DP  RH WIND       PRES   REMARKS
TWIN CITIES    CLOUDY    68  31  25 SE9       29.58F
ST PAUL        CLOUDY    67  32  27 SE12      29.59F
CRYSTAL        CLOUDY    68  28  22 S9        29.57F
BLAINE         PTSUNNY   68  30  24 SE10      29.58F
LAKEVILLE      CLOUDY    66  34  30 S15       29.59F
EDEN PRAIRIE   CLOUDY    68  31  25 SE8       29.56F
SOUTH ST PAUL  CLOUDY    68  30  24 S7        29.58F
LAKE ELMO      FAIR      68  32  26 SE10      29.61F
$$
MNZ001>005-007-008-013>017-022>024-027-028-250000-
   Northwest Minnesota

CITY           SKY/WX    TMP DP  RH WIND       PRES   REMARKS
BEMIDJI        RAIN      42  41  95 NE3       29.56S
HALLOCK        CLOUDY    36  34  93 NE13G20   29.68R FOG
ROSEAU         LGT SNOW  34  28  80 NE16G22   29.67S WCI  23
WARROAD        DRIZZLE   34  30  86 NE16G23   29.68S WCI  23
THIEF RVR FALL LGT RAIN  36  35  96 NE15      29.60S
CROOKSTON      MIX PCPN  37  37 100 NE10      29.61R
FOSSTON        DRIZZLE   39  37  93 NE8       29.56S
DETROIT LAKES  RAIN      50  46  87 SE3       29.53S
MOORHEAD       LGT RAIN  48  45  87 NW16      29.53R
PARK RAPIDS    RAIN      53  45  74 S6        29.54R
MAHNOMEN       RAIN      46  44  94 E7        29.53R
$$
MNZ006-009>011-018-025>026-250000-
   North Central Minnesota

CITY           SKY/WX    TMP DP  RH WIND       PRES   REMARKS
BAUDETTE       LGT RAIN  34  32  92 NE10      29.65S WCI  26
FLAG ISLAND    DRIZZLE   30  28  93 NE15G24   29.71F WCI  19
INTL FALLS     LGT RAIN  37  35  92 E9        29.67S FOG
WASKISH        LGT RAIN  39  37  93 E8        29.62R
BIG FORK       LGT RAIN  45  36  70 E7        29.60S
LONGVILLE      LGT RAIN  48  39  71 E9        29.57R
GRAND RAPIDS   CLOUDY    44  31  60 E9        29.62S
CRANE LAKE     LGT RAIN  37  36  93 E3        29.69F
ORR            CLOUDY    39  30  70 E5        29.64F
COOK           DRIZZLE   39  32  75 CALM      29.67R
WALKER         DRIZZLE   53  41  62 S5        29.55R
$$
MNZ012-019>021-037-250000-
   Northeast Minnesota

CITY           SKY/WX    TMP DP  RH WIND       PRES   REMARKS
DULUTH         CLOUDY    37  32  82 E21G33    29.66S
ELY            CLOUDY    37  28  70 E13G18    29.68S
HIBBING        CLOUDY    40  30  67 E10G18    29.63F
EVELETH        CLOUDY    40  27  58 E9        29.65F
DULUTH HARBOR  CLOUDY    37  36  93 NE31G37   29.71F
TWO HARBORS    CLOUDY    39  34  81 NE17G25   29.70S
SILVER BAY     CLOUDY    36  32  87 NE10G24   29.73S
GRAND MARAIS     N/A     39  30  70 NE21G36   29.78F
G MARAIS ARPRT CLOUDY    32  25  74 NE18G29   29.75F WCI  20
$$
MNZ029>031-032-039>041-046>048-054>057-064-250000-
   West Central Minnesota

CITY           SKY/WX    TMP DP  RH WIND       PRES   REMARKS
FERGUS FALLS   LGT RAIN  52  48  87 CALM      29.51R
WHEATON        LGT RAIN  52  46  82 NW8       29.53R
MORRIS         CLOUDY    64  43  45 S10       29.49S
ALEXANDRIA     CLOUDY    61  40  45 S14G21    29.53S
ELBOW LAKE     CLOUDY    58  42  54 S9        29.50S
WADENA         LGT RAIN  54  45  71 S6        29.53S
GLENWOOD       MOSUNNY   63  39  42 S15       29.53S
APPLETON       CLOUDY    66  37  34 S13G18    29.48F
BENSON         CLOUDY    66  30  26 SW17G23   29.52S
ORTONVILLE     CLOUDY    64  39  39 W5        29.48S
MADISON        CLOUDY    66  39  37 S15       29.48S
WILLMAR        FAIR      64  39  39 S5        29.54F
$$
MNZ033>034-036-042>043-049>051-058-059-250000-
   Central Minnesota

CITY           SKY/WX    TMP DP  RH WIND       PRES   REMARKS
ST CLOUD       CLOUDY    61  38  42 S15       29.56F
SAUK CENTRE    MOCLDY    61  38  42 S15       29.54S
PAYNESVILLE    MOSUNNY   64  33  32 S9        29.55S
AITKIN         CLOUDY    54  32  43 E7        29.57R
PINE RIVER     CLOUDY    61  41  48 SW9G25    29.59R
BRAINERD       CLOUDY    63  32  31 S21G32    29.56R
STAPLES        CLOUDY    52  45  76 S8        29.56R
LONG PRAIRIE   CLOUDY    57  41  54 SE13      29.54F
LITTLE FALLS   CLOUDY    59  34  38 S5        29.57R
LITCHFIELD     MOSUNNY   64  43  45 CALM      29.55F
BUFFALO        CLOUDY    58  44  59 E5        29.56F
MAPLE LAKE     CLOUDY    61  44  53 SE5       29.56F
HUTCHINSON     CLOUDY    67  42  40 SE7       29.55F
$$
MNZ037-044-045-052-053-250000-
   East Central Minnesota

CITY           SKY/WX    TMP DP  RH WIND       PRES   REMARKS
PRINCETON      DRIZZLE   63  39  42 SE12G20   29.59S
MORA           CLOUDY    63  32  31 S22G30    29.60F
CAMBRIDGE      LGT RAIN  64  43  45 S13G29    29.59S
RUSH CITY      CLOUDY    66  30  26 S22G37    29.61S
MOOSE LAKE     CLOUDY    43  32  65 E7        29.60F
HINCKLEY       CLOUDY    64  34  32 S23G32    29.60S
CLOQUET        CLOUDY    37  30  75 E16G24    29.65F
MCGREGOR       CLOUDY    43  34  70 E15G23    29.60S
$$
MNZ071>073-080-081-089-090-097-098-250000-
   Southwest Minnesota

CITY           SKY/WX    TMP DP  RH WIND       PRES   REMARKS
MONTEVIDEO     PTSUNNY   66  37  34 SW9       29.50S
GRANITE FALLS  CLOUDY    67  40  37 S14       29.52F
CANBY          CLOUDY    67  39  35 S14       29.49F
MARSHALL       CLOUDY    67  40  37 S12       29.50F
REDWOOD FALLS  CLOUDY    66  39  37 S10       29.51F
OLIVIA         PTSUNNY   64  37  36 S6        29.52F
PIPESTONE      CLOUDY    64  37  36 SW8       29.50S
WINDOM         CLOUDY    66  32  28 S16G28    29.53S
WORTHINGTON    CLOUDY    66  38  35 S20       29.53S
JACKSON        CLOUDY    68  32  26 S15       29.55F
TRACY          CLOUDY    68  39  34 S15G21    29.51F
SLAYTON        CLOUDY    66  37  35 S20G29    29.51F
$$
MNZ065>067-074>077-082>085-091>093-250000-
   South Central Minnesota

CITY           SKY/WX    TMP DP  RH WIND       PRES   REMARKS
MANKATO        CLOUDY    68  29  23 S14G23    29.56F
NEW ULM        CLOUDY    68  32  26 S16G22    29.53F
ST JAMES       CLOUDY    70  34  26 S18G24    29.54F
FAIRMONT       CLOUDY    68  33  27 S16       29.55F
GLENCOE        CLOUDY    68  37  31 SE9G17    29.54F
FARIBAULT      CLOUDY    68  30  24 S15G22    29.60S
OWATONNA       CLOUDY    66  28  24 S13       29.59F
WASECA         CLOUDY    64  32  29 S25G31    29.60S
ALBERT LEA     CLOUDY    66  25  20 S12       29.59F
$$
MNZ078>079-086>088-094>096-250000-
   Southeast Minnesota

CITY           SKY/WX    TMP DP  RH WIND       PRES   REMARKS
ROCHESTER      CLOUDY    66  31  27 S17       29.63F
RED WING       CLOUDY    70  28  21 S10       29.61F
STANTON        CLOUDY    69  30  23 S18G30    29.59S
DODGE CENTER   CLOUDY    64  30  27 S21       29.61F
WINONA         CLOUDY    70  32  24 S7        29.66R
AUSTIN         CLOUDY    66  27  22 S9G16     29.60F
PRESTON        CLOUDY    66  28  23 S13       29.66R
$$
ABBREVIATIONS USED IN REMARKS
   TC - TEMPERATURES IN CELSIUS
  WCI - WIND CHILL INDEX
   HX - HEAT INDEX
  VSB - VISIBILITY
$$




USA.gov is the U.S. government's official web portal to all federal, state and local government web resources and services.